Index of /goes/flt/t1/over

[ICO]NameLast modifiedSizeDescription

[DIR]Parent Directory  -  
[IMG]CHILL.GIF05-Dec-2016 15:40 2.1K 
[IMG]CNTY.GIF28-Apr-2016 12:03 2.1K 
[IMG]D-TEMP.GIF05-Dec-2016 15:40 2.1K 
[IMG]FRNT.GIF05-Dec-2016 15:40 2.1K 
[IMG]GUSTS.GIF05-Dec-2016 15:40 2.1K 
[IMG]HEAT.GIF05-Dec-2016 15:40 2.1K 
[IMG]IRTEMP.GIF10-Feb-2011 20:02 2.4K 
[IMG]LALO.GIF24-Mar-2016 19:17 5.7K 
[IMG]PCPN.GIF05-Dec-2016 15:40 2.1K 
[IMG]PCPN6.GIF05-Dec-2016 15:40 2.1K 
[IMG]PLOT.GIF05-Dec-2016 15:40 2.1K 
[IMG]PMSL2.GIF05-Dec-2016 15:40 2.1K 
[IMG]POINTS.GIF05-Dec-2016 15:40 2.8K 
[IMG]RADAR.GIF05-Dec-2016 15:40 7.8K 
[IMG]RH.GIF05-Dec-2016 15:40 2.1K 
[IMG]ROAD.GIF28-Apr-2016 12:03 2.1K 
[IMG]SATWIN_H.GIF05-Dec-2016 15:40 2.1K 
[IMG]SATWIN_L.GIF05-Dec-2016 15:40 2.1K 
[IMG]SATWIN_M.GIF05-Dec-2016 15:40 2.1K 
[IMG]SLI.GIF05-Dec-2016 15:40 2.1K 
[IMG]SPW.GIF05-Dec-2016 15:40 2.1K 
[IMG]SST.GIF05-Dec-2016 15:40 2.1K 
[IMG]TEMP.GIF05-Dec-2016 15:40 2.1K 
[IMG]WARN.GIF05-Dec-2016 15:40 2.1K 
[IMG]WIND.GIF05-Dec-2016 15:40 2.1K